locationName,lineName,date,time,countIn,countOut
�n����ʂ�,3_1_3,2022/8/1,0:00,4,1
�n����ʂ�,3_1_3,2022/8/1,1:00,1,4
�n����ʂ�,3_1_3,2022/8/1,2:00,1,1
�n����ʂ�,3_1_3,2022/8/1,3:00,1,6
�n����ʂ�,3_1_3,2022/8/1,4:00,7,4
�n����ʂ�,3_1_3,2022/8/1,5:00,23,33
�n����ʂ�,3_1_3,2022/8/1,6:00,41,64
�n����ʂ�,3_1_3,2022/8/1,7:00,79,200
�n����ʂ�,3_1_3,2022/8/1,8:00,89,281
�n����ʂ�,3_1_3,2022/8/1,9:00,137,171
�n����ʂ�,3_1_3,2022/8/1,10:00,174,180
�n����ʂ�,3_1_3,2022/8/1,11:00,188,182
�n����ʂ�,3_1_3,2022/8/1,12:00,261,132
�n����ʂ�,3_1_3,2022/8/1,13:00,182,176
�n����ʂ�,3_1_3,2022/8/1,14:00,169,101
�n����ʂ�,3_1_3,2022/8/1,15:00,109,100
�n����ʂ�,3_1_3,2022/8/1,16:00,151,127
�n����ʂ�,3_1_3,2022/8/1,17:00,229,84
�n����ʂ�,3_1_3,2022/8/1,18:00,131,104
�n����ʂ�,3_1_3,2022/8/1,19:00,79,53
�n����ʂ�,3_1_3,2022/8/1,20:00,74,58
�n����ʂ�,3_1_3,2022/8/1,21:00,127,68
�n����ʂ�,3_1_3,2022/8/1,22:00,31,13
�n����ʂ�,3_1_3,2022/8/1,23:00,3,0
�n����ʂ�,3_1_3,2022/8/2,0:00,3,1
�n����ʂ�,3_1_3,2022/8/2,1:00,0,0
�n����ʂ�,3_1_3,2022/8/2,2:00,0,1
�n����ʂ�,3_1_3,2022/8/2,3:00,2,5
�n����ʂ�,3_1_3,2022/8/2,4:00,4,2
�n����ʂ�,3_1_3,2022/8/2,5:00,24,31
�n����ʂ�,3_1_3,2022/8/2,6:00,40,47
�n����ʂ�,3_1_3,2022/8/2,7:00,59,126
�n����ʂ�,3_1_3,2022/8/2,8:00,108,267
�n����ʂ�,3_1_3,2022/8/2,9:00,117,181
�n����ʂ�,3_1_3,2022/8/2,10:00,208,214
�n����ʂ�,3_1_3,2022/8/2,11:00,165,138
�n����ʂ�,3_1_3,2022/8/2,12:00,204,188
�n����ʂ�,3_1_3,2022/8/2,13:00,162,149
�n����ʂ�,3_1_3,2022/8/2,14:00,170,135
�n����ʂ�,3_1_3,2022/8/2,15:00,122,87
�n����ʂ�,3_1_3,2022/8/2,16:00,161,73
�n����ʂ�,3_1_3,2022/8/2,17:00,210,92
�n����ʂ�,3_1_3,2022/8/2,18:00,126,94
�n����ʂ�,3_1_3,2022/8/2,19:00,80,73
�n����ʂ�,3_1_3,2022/8/2,20:00,82,45
�n����ʂ�,3_1_3,2022/8/2,21:00,20,12
�n����ʂ�,3_1_3,2022/8/2,22:00,7,2
�n����ʂ�,3_1_3,2022/8/2,23:00,1,3
�n����ʂ�,3_1_3,2022/8/3,0:00,3,0
�n����ʂ�,3_1_3,2022/8/3,1:00,3,1
�n����ʂ�,3_1_3,2022/8/3,2:00,1,1
�n����ʂ�,3_1_3,2022/8/3,3:00,1,6
�n����ʂ�,3_1_3,2022/8/3,4:00,5,3
�n����ʂ�,3_1_3,2022/8/3,5:00,17,27
�n����ʂ�,3_1_3,2022/8/3,6:00,39,41
�n����ʂ�,3_1_3,2022/8/3,7:00,76,140
�n����ʂ�,3_1_3,2022/8/3,8:00,120,232
�n����ʂ�,3_1_3,2022/8/3,9:00,126,145
�n����ʂ�,3_1_3,2022/8/3,10:00,173,164
�n����ʂ�,3_1_3,2022/8/3,11:00,144,153
�n����ʂ�,3_1_3,2022/8/3,12:00,194,163
�n����ʂ�,3_1_3,2022/8/3,13:00,143,147
�n����ʂ�,3_1_3,2022/8/3,14:00,198,143
�n����ʂ�,3_1_3,2022/8/3,15:00,202,146
�n����ʂ�,3_1_3,2022/8/3,16:00,152,111
�n����ʂ�,3_1_3,2022/8/3,17:00,200,107
�n����ʂ�,3_1_3,2022/8/3,18:00,101,117
�n����ʂ�,3_1_3,2022/8/3,19:00,66,60
�n����ʂ�,3_1_3,2022/8/3,20:00,60,50
�n����ʂ�,3_1_3,2022/8/3,21:00,103,49
�n����ʂ�,3_1_3,2022/8/3,22:00,25,5
�n����ʂ�,3_1_3,2022/8/3,23:00,3,3
�n����ʂ�,3_1_3,2022/8/4,0:00,4,7
�n����ʂ�,3_1_3,2022/8/4,1:00,0,3
�n����ʂ�,3_1_3,2022/8/4,2:00,1,2
�n����ʂ�,3_1_3,2022/8/4,3:00,2,6
�n����ʂ�,3_1_3,2022/8/4,4:00,3,3
�n����ʂ�,3_1_3,2022/8/4,5:00,32,32
�n����ʂ�,3_1_3,2022/8/4,6:00,51,61
�n����ʂ�,3_1_3,2022/8/4,7:00,63,181
�n����ʂ�,3_1_3,2022/8/4,8:00,95,227
�n����ʂ�,3_1_3,2022/8/4,9:00,138,163
�n����ʂ�,3_1_3,2022/8/4,10:00,116,160
�n����ʂ�,3_1_3,2022/8/4,11:00,185,152
�n����ʂ�,3_1_3,2022/8/4,12:00,252,180
�n����ʂ�,3_1_3,2022/8/4,13:00,196,206
�n����ʂ�,3_1_3,2022/8/4,14:00,211,148
�n����ʂ�,3_1_3,2022/8/4,15:00,182,93
�n����ʂ�,3_1_3,2022/8/4,16:00,167,120
�n����ʂ�,3_1_3,2022/8/4,17:00,210,89
�n����ʂ�,3_1_3,2022/8/4,18:00,127,103
�n����ʂ�,3_1_3,2022/8/4,19:00,88,75
�n����ʂ�,3_1_3,2022/8/4,20:00,89,49
�n����ʂ�,3_1_3,2022/8/4,21:00,47,26
�n����ʂ�,3_1_3,2022/8/4,22:00,9,3
�n����ʂ�,3_1_3,2022/8/4,23:00,8,8
�n����ʂ�,3_1_3,2022/8/5,0:00,1,4
�n����ʂ�,3_1_3,2022/8/5,1:00,2,0
�n����ʂ�,3_1_3,2022/8/5,2:00,1,1
�n����ʂ�,3_1_3,2022/8/5,3:00,1,4
�n����ʂ�,3_1_3,2022/8/5,4:00,3,4
�n����ʂ�,3_1_3,2022/8/5,5:00,31,41
�n����ʂ�,3_1_3,2022/8/5,6:00,37,52
�n����ʂ�,3_1_3,2022/8/5,7:00,115,204
�n����ʂ�,3_1_3,2022/8/5,8:00,103,264
�n����ʂ�,3_1_3,2022/8/5,9:00,164,146
�n����ʂ�,3_1_3,2022/8/5,10:00,153,179
�n����ʂ�,3_1_3,2022/8/5,11:00,194,166
�n����ʂ�,3_1_3,2022/8/5,12:00,229,211
�n����ʂ�,3_1_3,2022/8/5,13:00,231,209
�n����ʂ�,3_1_3,2022/8/5,14:00,185,166
�n����ʂ�,3_1_3,2022/8/5,15:00,159,90
�n����ʂ�,3_1_3,2022/8/5,16:00,192,116
�n����ʂ�,3_1_3,2022/8/5,17:00,206,115
�n����ʂ�,3_1_3,2022/8/5,18:00,137,156
�n����ʂ�,3_1_3,2022/8/5,19:00,78,74
�n����ʂ�,3_1_3,2022/8/5,20:00,128,79
�n����ʂ�,3_1_3,2022/8/5,21:00,55,23
�n����ʂ�,3_1_3,2022/8/5,22:00,11,19
�n����ʂ�,3_1_3,2022/8/5,23:00,10,3
�n����ʂ�,3_1_3,2022/8/6,0:00,7,1
�n����ʂ�,3_1_3,2022/8/6,1:00,0,0
�n����ʂ�,3_1_3,2022/8/6,2:00,3,1
�n����ʂ�,3_1_3,2022/8/6,3:00,0,5
�n����ʂ�,3_1_3,2022/8/6,4:00,3,2
�n����ʂ�,3_1_3,2022/8/6,5:00,24,23
�n����ʂ�,3_1_3,2022/8/6,6:00,34,38
�n����ʂ�,3_1_3,2022/8/6,7:00,48,76
�n����ʂ�,3_1_3,2022/8/6,8:00,96,107
�n����ʂ�,3_1_3,2022/8/6,9:00,122,154
�n����ʂ�,3_1_3,2022/8/6,10:00,237,243
�n����ʂ�,3_1_3,2022/8/6,11:00,184,252
�n����ʂ�,3_1_3,2022/8/6,12:00,355,297
�n����ʂ�,3_1_3,2022/8/6,13:00,342,290
�n����ʂ�,3_1_3,2022/8/6,14:00,348,313
�n����ʂ�,3_1_3,2022/8/6,15:00,279,192
�n����ʂ�,3_1_3,2022/8/6,16:00,152,139
�n����ʂ�,3_1_3,2022/8/6,17:00,171,113
�n����ʂ�,3_1_3,2022/8/6,18:00,103,110
�n����ʂ�,3_1_3,2022/8/6,19:00,74,81
�n����ʂ�,3_1_3,2022/8/6,20:00,126,65
�n����ʂ�,3_1_3,2022/8/6,21:00,103,53
�n����ʂ�,3_1_3,2022/8/6,22:00,10,7
�n����ʂ�,3_1_3,2022/8/6,23:00,1,1
�n����ʂ�,3_1_3,2022/8/7,0:00,2,4
�n����ʂ�,3_1_3,2022/8/7,1:00,0,3
�n����ʂ�,3_1_3,2022/8/7,2:00,7,1
�n����ʂ�,3_1_3,2022/8/7,3:00,1,6
�n����ʂ�,3_1_3,2022/8/7,4:00,2,1
�n����ʂ�,3_1_3,2022/8/7,5:00,27,20
�n����ʂ�,3_1_3,2022/8/7,6:00,53,35
�n����ʂ�,3_1_3,2022/8/7,7:00,61,45
�n����ʂ�,3_1_3,2022/8/7,8:00,70,76
�n����ʂ�,3_1_3,2022/8/7,9:00,109,143
�n����ʂ�,3_1_3,2022/8/7,10:00,194,219
�n����ʂ�,3_1_3,2022/8/7,11:00,235,272
�n����ʂ�,3_1_3,2022/8/7,12:00,332,279
�n����ʂ�,3_1_3,2022/8/7,13:00,341,253
�n����ʂ�,3_1_3,2022/8/7,14:00,294,232
�n����ʂ�,3_1_3,2022/8/7,15:00,268,254
�n����ʂ�,3_1_3,2022/8/7,16:00,236,148
�n����ʂ�,3_1_3,2022/8/7,17:00,170,125
�n����ʂ�,3_1_3,2022/8/7,18:00,96,85
�n����ʂ�,3_1_3,2022/8/7,19:00,73,60
�n����ʂ�,3_1_3,2022/8/7,20:00,73,50
�n����ʂ�,3_1_3,2022/8/7,21:00,97,44
�n����ʂ�,3_1_3,2022/8/7,22:00,30,11
�n����ʂ�,3_1_3,2022/8/7,23:00,2,5
�n����ʂ�,3_1_3,2022/8/8,0:00,2,0
�n����ʂ�,3_1_3,2022/8/8,1:00,0,1
�n����ʂ�,3_1_3,2022/8/8,2:00,1,1
�n����ʂ�,3_1_3,2022/8/8,3:00,1,0
�n����ʂ�,3_1_3,2022/8/8,4:00,2,3
�n����ʂ�,3_1_3,2022/8/8,5:00,18,18
�n����ʂ�,3_1_3,2022/8/8,6:00,33,44
�n����ʂ�,3_1_3,2022/8/8,7:00,70,138
�n����ʂ�,3_1_3,2022/8/8,8:00,92,264
�n����ʂ�,3_1_3,2022/8/8,9:00,141,178
�n����ʂ�,3_1_3,2022/8/8,10:00,166,188
�n����ʂ�,3_1_3,2022/8/8,11:00,225,201
�n����ʂ�,3_1_3,2022/8/8,12:00,311,293
�n����ʂ�,3_1_3,2022/8/8,13:00,262,241
�n����ʂ�,3_1_3,2022/8/8,14:00,286,208
�n����ʂ�,3_1_3,2022/8/8,15:00,272,179
�n����ʂ�,3_1_3,2022/8/8,16:00,218,144
�n����ʂ�,3_1_3,2022/8/8,17:00,303,142
�n����ʂ�,3_1_3,2022/8/8,18:00,192,137
�n����ʂ�,3_1_3,2022/8/8,19:00,91,77
�n����ʂ�,3_1_3,2022/8/8,20:00,47,56
�n����ʂ�,3_1_3,2022/8/8,21:00,54,36
�n����ʂ�,3_1_3,2022/8/8,22:00,21,20
�n����ʂ�,3_1_3,2022/8/8,23:00,7,4
�n����ʂ�,3_1_3,2022/8/9,0:00,2,0
�n����ʂ�,3_1_3,2022/8/9,1:00,0,0
�n����ʂ�,3_1_3,2022/8/9,2:00,1,1
�n����ʂ�,3_1_3,2022/8/9,3:00,0,1
�n����ʂ�,3_1_3,2022/8/9,4:00,1,2
�n����ʂ�,3_1_3,2022/8/9,5:00,20,27
�n����ʂ�,3_1_3,2022/8/9,6:00,45,53
�n����ʂ�,3_1_3,2022/8/9,7:00,91,201
�n����ʂ�,3_1_3,2022/8/9,8:00,111,260
�n����ʂ�,3_1_3,2022/8/9,9:00,136,183
�n����ʂ�,3_1_3,2022/8/9,10:00,209,274
�n����ʂ�,3_1_3,2022/8/9,11:00,216,208
�n����ʂ�,3_1_3,2022/8/9,12:00,327,232
�n����ʂ�,3_1_3,2022/8/9,13:00,246,258
�n����ʂ�,3_1_3,2022/8/9,14:00,279,250
�n����ʂ�,3_1_3,2022/8/9,15:00,286,189
�n����ʂ�,3_1_3,2022/8/9,16:00,262,162
�n����ʂ�,3_1_3,2022/8/9,17:00,326,129
�n����ʂ�,3_1_3,2022/8/9,18:00,139,91
�n����ʂ�,3_1_3,2022/8/9,19:00,86,103
�n����ʂ�,3_1_3,2022/8/9,20:00,76,49
�n����ʂ�,3_1_3,2022/8/9,21:00,46,43
�n����ʂ�,3_1_3,2022/8/9,22:00,21,7
�n����ʂ�,3_1_3,2022/8/9,23:00,5,1
�n����ʂ�,3_1_3,2022/8/10,0:00,3,0
�n����ʂ�,3_1_3,2022/8/10,1:00,9,0
�n����ʂ�,3_1_3,2022/8/10,2:00,0,2
�n����ʂ�,3_1_3,2022/8/10,3:00,0,0
�n����ʂ�,3_1_3,2022/8/10,4:00,3,0
�n����ʂ�,3_1_3,2022/8/10,5:00,24,30
�n����ʂ�,3_1_3,2022/8/10,6:00,54,42
�n����ʂ�,3_1_3,2022/8/10,7:00,80,165
�n����ʂ�,3_1_3,2022/8/10,8:00,96,192
�n����ʂ�,3_1_3,2022/8/10,9:00,164,162
�n����ʂ�,3_1_3,2022/8/10,10:00,193,233
�n����ʂ�,3_1_3,2022/8/10,11:00,230,264
�n����ʂ�,3_1_3,2022/8/10,12:00,289,326
�n����ʂ�,3_1_3,2022/8/10,13:00,332,319
�n����ʂ�,3_1_3,2022/8/10,14:00,300,292
�n����ʂ�,3_1_3,2022/8/10,15:00,320,201
�n����ʂ�,3_1_3,2022/8/10,16:00,225,180
�n����ʂ�,3_1_3,2022/8/10,17:00,286,163
�n����ʂ�,3_1_3,2022/8/10,18:00,191,172
�n����ʂ�,3_1_3,2022/8/10,19:00,83,65
�n����ʂ�,3_1_3,2022/8/10,20:00,87,72
�n����ʂ�,3_1_3,2022/8/10,21:00,69,53
�n����ʂ�,3_1_3,2022/8/10,22:00,15,0
�n����ʂ�,3_1_3,2022/8/10,23:00,3,0
�n����ʂ�,3_1_3,2022/8/11,0:00,2,2
�n����ʂ�,3_1_3,2022/8/11,1:00,0,0
�n����ʂ�,3_1_3,2022/8/11,2:00,1,1
�n����ʂ�,3_1_3,2022/8/11,3:00,6,1
�n����ʂ�,3_1_3,2022/8/11,4:00,1,1
�n����ʂ�,3_1_3,2022/8/11,5:00,27,28
�n����ʂ�,3_1_3,2022/8/11,6:00,53,41
�n����ʂ�,3_1_3,2022/8/11,7:00,60,64
�n����ʂ�,3_1_3,2022/8/11,8:00,109,97
�n����ʂ�,3_1_3,2022/8/11,9:00,123,161
�n����ʂ�,3_1_3,2022/8/11,10:00,232,296
�n����ʂ�,3_1_3,2022/8/11,11:00,297,363
�n����ʂ�,3_1_3,2022/8/11,12:00,448,524
�n����ʂ�,3_1_3,2022/8/11,13:00,546,539
�n����ʂ�,3_1_3,2022/8/11,14:00,557,559
�n����ʂ�,3_1_3,2022/8/11,15:00,497,399
�n����ʂ�,3_1_3,2022/8/11,16:00,451,334
�n����ʂ�,3_1_3,2022/8/11,17:00,304,250
�n����ʂ�,3_1_3,2022/8/11,18:00,185,162
�n����ʂ�,3_1_3,2022/8/11,19:00,88,83
�n����ʂ�,3_1_3,2022/8/11,20:00,92,77
�n����ʂ�,3_1_3,2022/8/11,21:00,76,40
�n����ʂ�,3_1_3,2022/8/11,22:00,13,5
�n����ʂ�,3_1_3,2022/8/11,23:00,18,1
�n����ʂ�,3_1_3,2022/8/12,0:00,1,0
�n����ʂ�,3_1_3,2022/8/12,1:00,4,0
�n����ʂ�,3_1_3,2022/8/12,2:00,3,1
�n����ʂ�,3_1_3,2022/8/12,3:00,0,1
�n����ʂ�,3_1_3,2022/8/12,4:00,1,0
�n����ʂ�,3_1_3,2022/8/12,5:00,25,19
�n����ʂ�,3_1_3,2022/8/12,6:00,44,45
�n����ʂ�,3_1_3,2022/8/12,7:00,52,104
�n����ʂ�,3_1_3,2022/8/12,8:00,93,162
�n����ʂ�,3_1_3,2022/8/12,9:00,176,206
�n����ʂ�,3_1_3,2022/8/12,10:00,295,348
�n����ʂ�,3_1_3,2022/8/12,11:00,357,387
�n����ʂ�,3_1_3,2022/8/12,12:00,443,544
�n����ʂ�,3_1_3,2022/8/12,13:00,467,480
�n����ʂ�,3_1_3,2022/8/12,14:00,522,518
�n����ʂ�,3_1_3,2022/8/12,15:00,503,379
�n����ʂ�,3_1_3,2022/8/12,16:00,385,348
�n����ʂ�,3_1_3,2022/8/12,17:00,370,249
�n����ʂ�,3_1_3,2022/8/12,18:00,177,159
�n����ʂ�,3_1_3,2022/8/12,19:00,117,100
�n����ʂ�,3_1_3,2022/8/12,20:00,98,106
�n����ʂ�,3_1_3,2022/8/12,21:00,74,66
�n����ʂ�,3_1_3,2022/8/12,22:00,21,20
�n����ʂ�,3_1_3,2022/8/12,23:00,8,0
�n����ʂ�,3_1_3,2022/8/13,0:00,7,0
�n����ʂ�,3_1_3,2022/8/13,1:00,8,1
�n����ʂ�,3_1_3,2022/8/13,2:00,2,1
�n����ʂ�,3_1_3,2022/8/13,3:00,5,2
�n����ʂ�,3_1_3,2022/8/13,4:00,2,0
�n����ʂ�,3_1_3,2022/8/13,5:00,17,20
�n����ʂ�,3_1_3,2022/8/13,6:00,46,39
�n����ʂ�,3_1_3,2022/8/13,7:00,72,70
�n����ʂ�,3_1_3,2022/8/13,8:00,115,102
�n����ʂ�,3_1_3,2022/8/13,9:00,186,227
�n����ʂ�,3_1_3,2022/8/13,10:00,288,383
�n����ʂ�,3_1_3,2022/8/13,11:00,401,457
�n����ʂ�,3_1_3,2022/8/13,12:00,499,460
�n����ʂ�,3_1_3,2022/8/13,13:00,475,470
�n����ʂ�,3_1_3,2022/8/13,14:00,572,373
�n����ʂ�,3_1_3,2022/8/13,15:00,456,421
�n����ʂ�,3_1_3,2022/8/13,16:00,438,333
�n����ʂ�,3_1_3,2022/8/13,17:00,293,295
�n����ʂ�,3_1_3,2022/8/13,18:00,184,221
�n����ʂ�,3_1_3,2022/8/13,19:00,90,119
�n����ʂ�,3_1_3,2022/8/13,20:00,67,128
�n����ʂ�,3_1_3,2022/8/13,21:00,78,68
�n����ʂ�,3_1_3,2022/8/13,22:00,37,16
�n����ʂ�,3_1_3,2022/8/13,23:00,12,1
�n����ʂ�,3_1_3,2022/8/14,0:00,9,1
�n����ʂ�,3_1_3,2022/8/14,1:00,4,0
�n����ʂ�,3_1_3,2022/8/14,2:00,4,1
�n����ʂ�,3_1_3,2022/8/14,3:00,2,3
�n����ʂ�,3_1_3,2022/8/14,4:00,3,0
�n����ʂ�,3_1_3,2022/8/14,5:00,16,10
�n����ʂ�,3_1_3,2022/8/14,6:00,30,30
�n����ʂ�,3_1_3,2022/8/14,7:00,65,51
�n����ʂ�,3_1_3,2022/8/14,8:00,72,88
�n����ʂ�,3_1_3,2022/8/14,9:00,155,151
�n����ʂ�,3_1_3,2022/8/14,10:00,212,354
�n����ʂ�,3_1_3,2022/8/14,11:00,342,421
�n����ʂ�,3_1_3,2022/8/14,12:00,487,545
�n����ʂ�,3_1_3,2022/8/14,13:00,557,488
�n����ʂ�,3_1_3,2022/8/14,14:00,652,538
�n����ʂ�,3_1_3,2022/8/14,15:00,572,434
�n����ʂ�,3_1_3,2022/8/14,16:00,476,333
�n����ʂ�,3_1_3,2022/8/14,17:00,270,258
�n����ʂ�,3_1_3,2022/8/14,18:00,211,136
�n����ʂ�,3_1_3,2022/8/14,19:00,104,103
�n����ʂ�,3_1_3,2022/8/14,20:00,85,93
�n����ʂ�,3_1_3,2022/8/14,21:00,47,55
�n����ʂ�,3_1_3,2022/8/14,22:00,25,25
�n����ʂ�,3_1_3,2022/8/14,23:00,6,2
�n����ʂ�,3_1_3,2022/8/15,0:00,6,0
�n����ʂ�,3_1_3,2022/8/15,1:00,0,1
�n����ʂ�,3_1_3,2022/8/15,2:00,4,1
�n����ʂ�,3_1_3,2022/8/15,3:00,1,1
�n����ʂ�,3_1_3,2022/8/15,4:00,2,1
�n����ʂ�,3_1_3,2022/8/15,5:00,17,16
�n����ʂ�,3_1_3,2022/8/15,6:00,36,27
�n����ʂ�,3_1_3,2022/8/15,7:00,53,89
�n����ʂ�,3_1_3,2022/8/15,8:00,110,169
�n����ʂ�,3_1_3,2022/8/15,9:00,197,184
�n����ʂ�,3_1_3,2022/8/15,10:00,308,353
�n����ʂ�,3_1_3,2022/8/15,11:00,396,413
�n����ʂ�,3_1_3,2022/8/15,12:00,441,403
�n����ʂ�,3_1_3,2022/8/15,13:00,477,432
�n����ʂ�,3_1_3,2022/8/15,14:00,506,413
�n����ʂ�,3_1_3,2022/8/15,15:00,506,382
�n����ʂ�,3_1_3,2022/8/15,16:00,398,276
�n����ʂ�,3_1_3,2022/8/15,17:00,351,181
�n����ʂ�,3_1_3,2022/8/15,18:00,154,172
�n����ʂ�,3_1_3,2022/8/15,19:00,121,90
�n����ʂ�,3_1_3,2022/8/15,20:00,65,62
�n����ʂ�,3_1_3,2022/8/15,21:00,39,56
�n����ʂ�,3_1_3,2022/8/15,22:00,10,11
�n����ʂ�,3_1_3,2022/8/15,23:00,12,0
�n����ʂ�,3_1_3,2022/8/16,0:00,1,1
�n����ʂ�,3_1_3,2022/8/16,1:00,3,1
�n����ʂ�,3_1_3,2022/8/16,2:00,1,1
�n����ʂ�,3_1_3,2022/8/16,3:00,1,1
�n����ʂ�,3_1_3,2022/8/16,4:00,1,1
�n����ʂ�,3_1_3,2022/8/16,5:00,15,22
�n����ʂ�,3_1_3,2022/8/16,6:00,37,30
�n����ʂ�,3_1_3,2022/8/16,7:00,69,122
�n����ʂ�,3_1_3,2022/8/16,8:00,90,161
�n����ʂ�,3_1_3,2022/8/16,9:00,171,160
�n����ʂ�,3_1_3,2022/8/16,10:00,229,289
�n����ʂ�,3_1_3,2022/8/16,11:00,323,379
�n����ʂ�,3_1_3,2022/8/16,12:00,389,492
�n����ʂ�,3_1_3,2022/8/16,13:00,450,417
�n����ʂ�,3_1_3,2022/8/16,14:00,387,358
�n����ʂ�,3_1_3,2022/8/16,15:00,380,287
�n����ʂ�,3_1_3,2022/8/16,16:00,286,244
�n����ʂ�,3_1_3,2022/8/16,17:00,321,164
�n����ʂ�,3_1_3,2022/8/16,18:00,158,127
�n����ʂ�,3_1_3,2022/8/16,19:00,66,114
�n����ʂ�,3_1_3,2022/8/16,20:00,46,53
�n����ʂ�,3_1_3,2022/8/16,21:00,40,37
�n����ʂ�,3_1_3,2022/8/16,22:00,14,26
�n����ʂ�,3_1_3,2022/8/16,23:00,19,7
�n����ʂ�,3_1_3,2022/8/17,0:00,1,2
�n����ʂ�,3_1_3,2022/8/17,1:00,0,0
�n����ʂ�,3_1_3,2022/8/17,2:00,0,1
�n����ʂ�,3_1_3,2022/8/17,3:00,2,6
�n����ʂ�,3_1_3,2022/8/17,4:00,1,4
�n����ʂ�,3_1_3,2022/8/17,5:00,18,23
�n����ʂ�,3_1_3,2022/8/17,6:00,42,48
�n����ʂ�,3_1_3,2022/8/17,7:00,43,75
�n����ʂ�,3_1_3,2022/8/17,8:00,70,127
�n����ʂ�,3_1_3,2022/8/17,9:00,98,89
�n����ʂ�,3_1_3,2022/8/17,10:00,165,175
�n����ʂ�,3_1_3,2022/8/17,11:00,251,283
�n����ʂ�,3_1_3,2022/8/17,12:00,303,323
�n����ʂ�,3_1_3,2022/8/17,13:00,233,328
�n����ʂ�,3_1_3,2022/8/17,14:00,271,215
�n����ʂ�,3_1_3,2022/8/17,15:00,265,226
�n����ʂ�,3_1_3,2022/8/17,16:00,212,192
�n����ʂ�,3_1_3,2022/8/17,17:00,269,159
�n����ʂ�,3_1_3,2022/8/17,18:00,134,129
�n����ʂ�,3_1_3,2022/8/17,19:00,57,70
�n����ʂ�,3_1_3,2022/8/17,20:00,35,44
�n����ʂ�,3_1_3,2022/8/17,21:00,44,22
�n����ʂ�,3_1_3,2022/8/17,22:00,12,6
�n����ʂ�,3_1_3,2022/8/17,23:00,2,2
�n����ʂ�,3_1_3,2022/8/18,0:00,4,0
�n����ʂ�,3_1_3,2022/8/18,1:00,1,0
�n����ʂ�,3_1_3,2022/8/18,2:00,1,1
�n����ʂ�,3_1_3,2022/8/18,3:00,2,4
�n����ʂ�,3_1_3,2022/8/18,4:00,1,0
�n����ʂ�,3_1_3,2022/8/18,5:00,13,20
�n����ʂ�,3_1_3,2022/8/18,6:00,28,33
�n����ʂ�,3_1_3,2022/8/18,7:00,59,132
�n����ʂ�,3_1_3,2022/8/18,8:00,111,217
�n����ʂ�,3_1_3,2022/8/18,9:00,155,218
�n����ʂ�,3_1_3,2022/8/18,10:00,198,181
�n����ʂ�,3_1_3,2022/8/18,11:00,295,268
�n����ʂ�,3_1_3,2022/8/18,12:00,295,245
�n����ʂ�,3_1_3,2022/8/18,13:00,343,274
�n����ʂ�,3_1_3,2022/8/18,14:00,331,264
�n����ʂ�,3_1_3,2022/8/18,15:00,304,173
�n����ʂ�,3_1_3,2022/8/18,16:00,251,204
�n����ʂ�,3_1_3,2022/8/18,17:00,323,142
�n����ʂ�,3_1_3,2022/8/18,18:00,171,120
�n����ʂ�,3_1_3,2022/8/18,19:00,107,89
�n����ʂ�,3_1_3,2022/8/18,20:00,71,56
�n����ʂ�,3_1_3,2022/8/18,21:00,62,43
�n����ʂ�,3_1_3,2022/8/18,22:00,14,19
�n����ʂ�,3_1_3,2022/8/18,23:00,13,16
�n����ʂ�,3_1_3,2022/8/19,0:00,2,0
�n����ʂ�,3_1_3,2022/8/19,1:00,4,0
�n����ʂ�,3_1_3,2022/8/19,2:00,1,1
�n����ʂ�,3_1_3,2022/8/19,3:00,3,1
�n����ʂ�,3_1_3,2022/8/19,4:00,2,2
�n����ʂ�,3_1_3,2022/8/19,5:00,17,20
�n����ʂ�,3_1_3,2022/8/19,6:00,44,47
�n����ʂ�,3_1_3,2022/8/19,7:00,83,206
�n����ʂ�,3_1_3,2022/8/19,8:00,122,317
�n����ʂ�,3_1_3,2022/8/19,9:00,178,245
�n����ʂ�,3_1_3,2022/8/19,10:00,284,275
�n����ʂ�,3_1_3,2022/8/19,11:00,301,224
�n����ʂ�,3_1_3,2022/8/19,12:00,335,318
�n����ʂ�,3_1_3,2022/8/19,13:00,330,312
�n����ʂ�,3_1_3,2022/8/19,14:00,343,258
�n����ʂ�,3_1_3,2022/8/19,15:00,314,215
�n����ʂ�,3_1_3,2022/8/19,16:00,279,236
�n����ʂ�,3_1_3,2022/8/19,17:00,315,169
�n����ʂ�,3_1_3,2022/8/19,18:00,172,161
�n����ʂ�,3_1_3,2022/8/19,19:00,73,84
�n����ʂ�,3_1_3,2022/8/19,20:00,65,53
�n����ʂ�,3_1_3,2022/8/19,21:00,54,49
�n����ʂ�,3_1_3,2022/8/19,22:00,17,8
�n����ʂ�,3_1_3,2022/8/19,23:00,7,0
�n����ʂ�,3_1_3,2022/8/20,0:00,7,1
�n����ʂ�,3_1_3,2022/8/20,1:00,5,3
�n����ʂ�,3_1_3,2022/8/20,2:00,3,1
�n����ʂ�,3_1_3,2022/8/20,3:00,1,3
�n����ʂ�,3_1_3,2022/8/20,4:00,2,0
�n����ʂ�,3_1_3,2022/8/20,5:00,12,21
�n����ʂ�,3_1_3,2022/8/20,6:00,40,51
�n����ʂ�,3_1_3,2022/8/20,7:00,40,208
�n����ʂ�,3_1_3,2022/8/20,8:00,79,206
�n����ʂ�,3_1_3,2022/8/20,9:00,116,144
�n����ʂ�,3_1_3,2022/8/20,10:00,193,273
�n����ʂ�,3_1_3,2022/8/20,11:00,259,283
�n����ʂ�,3_1_3,2022/8/20,12:00,413,447
�n����ʂ�,3_1_3,2022/8/20,13:00,362,356
�n����ʂ�,3_1_3,2022/8/20,14:00,496,335
�n����ʂ�,3_1_3,2022/8/20,15:00,397,273
�n����ʂ�,3_1_3,2022/8/20,16:00,301,164
�n����ʂ�,3_1_3,2022/8/20,17:00,291,182
�n����ʂ�,3_1_3,2022/8/20,18:00,165,145
�n����ʂ�,3_1_3,2022/8/20,19:00,84,82
�n����ʂ�,3_1_3,2022/8/20,20:00,88,79
�n����ʂ�,3_1_3,2022/8/20,21:00,55,36
�n����ʂ�,3_1_3,2022/8/20,22:00,11,17
�n����ʂ�,3_1_3,2022/8/20,23:00,8,2
�n����ʂ�,3_1_3,2022/8/21,0:00,4,0
�n����ʂ�,3_1_3,2022/8/21,1:00,6,0
�n����ʂ�,3_1_3,2022/8/21,2:00,2,0
�n����ʂ�,3_1_3,2022/8/21,3:00,3,4
�n����ʂ�,3_1_3,2022/8/21,4:00,4,2
�n����ʂ�,3_1_3,2022/8/21,5:00,14,12
�n����ʂ�,3_1_3,2022/8/21,6:00,34,22
�n����ʂ�,3_1_3,2022/8/21,7:00,44,39
�n����ʂ�,3_1_3,2022/8/21,8:00,82,96
�n����ʂ�,3_1_3,2022/8/21,9:00,99,150
�n����ʂ�,3_1_3,2022/8/21,10:00,225,260
�n����ʂ�,3_1_3,2022/8/21,11:00,277,294
�n����ʂ�,3_1_3,2022/8/21,12:00,373,428
�n����ʂ�,3_1_3,2022/8/21,13:00,441,418
�n����ʂ�,3_1_3,2022/8/21,14:00,424,388
�n����ʂ�,3_1_3,2022/8/21,15:00,475,315
�n����ʂ�,3_1_3,2022/8/21,16:00,358,239
�n����ʂ�,3_1_3,2022/8/21,17:00,247,185
�n����ʂ�,3_1_3,2022/8/21,18:00,108,101
�n����ʂ�,3_1_3,2022/8/21,19:00,85,75
�n����ʂ�,3_1_3,2022/8/21,20:00,53,44
�n����ʂ�,3_1_3,2022/8/21,21:00,29,23
�n����ʂ�,3_1_3,2022/8/21,22:00,6,1
�n����ʂ�,3_1_3,2022/8/21,23:00,5,0
�n����ʂ�,3_1_3,2022/8/22,0:00,4,1
�n����ʂ�,3_1_3,2022/8/22,1:00,1,0
�n����ʂ�,3_1_3,2022/8/22,2:00,2,1
�n����ʂ�,3_1_3,2022/8/22,3:00,1,0
�n����ʂ�,3_1_3,2022/8/22,4:00,5,0
�n����ʂ�,3_1_3,2022/8/22,5:00,17,21
�n����ʂ�,3_1_3,2022/8/22,6:00,39,42
�n����ʂ�,3_1_3,2022/8/22,7:00,53,168
�n����ʂ�,3_1_3,2022/8/22,8:00,86,264
�n����ʂ�,3_1_3,2022/8/22,9:00,153,163
�n����ʂ�,3_1_3,2022/8/22,10:00,183,196
�n����ʂ�,3_1_3,2022/8/22,11:00,242,207
�n����ʂ�,3_1_3,2022/8/22,12:00,303,312
�n����ʂ�,3_1_3,2022/8/22,13:00,264,264
�n����ʂ�,3_1_3,2022/8/22,14:00,291,204
�n����ʂ�,3_1_3,2022/8/22,15:00,238,125
�n����ʂ�,3_1_3,2022/8/22,16:00,190,143
�n����ʂ�,3_1_3,2022/8/22,17:00,270,108
�n����ʂ�,3_1_3,2022/8/22,18:00,150,116
�n����ʂ�,3_1_3,2022/8/22,19:00,57,58
�n����ʂ�,3_1_3,2022/8/22,20:00,60,71
�n����ʂ�,3_1_3,2022/8/22,21:00,34,48
�n����ʂ�,3_1_3,2022/8/22,22:00,10,1
�n����ʂ�,3_1_3,2022/8/22,23:00,6,2
�n����ʂ�,3_1_3,2022/8/23,0:00,1,0
�n����ʂ�,3_1_3,2022/8/23,1:00,2,0
�n����ʂ�,3_1_3,2022/8/23,2:00,2,1
�n����ʂ�,3_1_3,2022/8/23,3:00,0,2
�n����ʂ�,3_1_3,2022/8/23,4:00,4,0
�n����ʂ�,3_1_3,2022/8/23,5:00,20,20
�n����ʂ�,3_1_3,2022/8/23,6:00,47,51
�n����ʂ�,3_1_3,2022/8/23,7:00,51,293
�n����ʂ�,3_1_3,2022/8/23,8:00,76,229
�n����ʂ�,3_1_3,2022/8/23,9:00,146,166
�n����ʂ�,3_1_3,2022/8/23,10:00,201,213
�n����ʂ�,3_1_3,2022/8/23,11:00,198,248
�n����ʂ�,3_1_3,2022/8/23,12:00,289,279
�n����ʂ�,3_1_3,2022/8/23,13:00,260,220
�n����ʂ�,3_1_3,2022/8/23,14:00,240,155
�n����ʂ�,3_1_3,2022/8/23,15:00,194,135
�n����ʂ�,3_1_3,2022/8/23,16:00,351,145
�n����ʂ�,3_1_3,2022/8/23,17:00,306,104
�n����ʂ�,3_1_3,2022/8/23,18:00,190,118
�n����ʂ�,3_1_3,2022/8/23,19:00,80,77
�n����ʂ�,3_1_3,2022/8/23,20:00,61,49
�n����ʂ�,3_1_3,2022/8/23,21:00,23,31
�n����ʂ�,3_1_3,2022/8/23,22:00,6,2
�n����ʂ�,3_1_3,2022/8/23,23:00,2,4
�n����ʂ�,3_1_3,2022/8/24,0:00,4,1
�n����ʂ�,3_1_3,2022/8/24,1:00,5,0
�n����ʂ�,3_1_3,2022/8/24,2:00,0,1
�n����ʂ�,3_1_3,2022/8/24,3:00,2,1
�n����ʂ�,3_1_3,2022/8/24,4:00,5,2
�n����ʂ�,3_1_3,2022/8/24,5:00,14,13
�n����ʂ�,3_1_3,2022/8/24,6:00,40,44
�n����ʂ�,3_1_3,2022/8/24,7:00,58,242
�n����ʂ�,3_1_3,2022/8/24,8:00,81,157
�n����ʂ�,3_1_3,2022/8/24,9:00,143,115
�n����ʂ�,3_1_3,2022/8/24,10:00,126,144
�n����ʂ�,3_1_3,2022/8/24,11:00,184,177
�n����ʂ�,3_1_3,2022/8/24,12:00,229,224
�n����ʂ�,3_1_3,2022/8/24,13:00,248,217
�n����ʂ�,3_1_3,2022/8/24,14:00,228,234
�n����ʂ�,3_1_3,2022/8/24,15:00,206,165
�n����ʂ�,3_1_3,2022/8/24,16:00,280,142
�n����ʂ�,3_1_3,2022/8/24,17:00,264,135
�n����ʂ�,3_1_3,2022/8/24,18:00,131,106
�n����ʂ�,3_1_3,2022/8/24,19:00,70,58
�n����ʂ�,3_1_3,2022/8/24,20:00,48,58
�n����ʂ�,3_1_3,2022/8/24,21:00,59,25
�n����ʂ�,3_1_3,2022/8/24,22:00,4,2
�n����ʂ�,3_1_3,2022/8/24,23:00,4,0
�n����ʂ�,3_1_3,2022/8/25,0:00,1,0
�n����ʂ�,3_1_3,2022/8/25,1:00,0,2
�n����ʂ�,3_1_3,2022/8/25,2:00,2,0
�n����ʂ�,3_1_3,2022/8/25,3:00,1,2
�n����ʂ�,3_1_3,2022/8/25,4:00,3,0
�n����ʂ�,3_1_3,2022/8/25,5:00,13,15
�n����ʂ�,3_1_3,2022/8/25,6:00,31,39
�n����ʂ�,3_1_3,2022/8/25,7:00,88,373
�n����ʂ�,3_1_3,2022/8/25,8:00,84,418
�n����ʂ�,3_1_3,2022/8/25,9:00,144,121
�n����ʂ�,3_1_3,2022/8/25,10:00,146,179
�n����ʂ�,3_1_3,2022/8/25,11:00,190,215
�n����ʂ�,3_1_3,2022/8/25,12:00,255,235
�n����ʂ�,3_1_3,2022/8/25,13:00,340,210
�n����ʂ�,3_1_3,2022/8/25,14:00,208,113
�n����ʂ�,3_1_3,2022/8/25,15:00,234,141
�n����ʂ�,3_1_3,2022/8/25,16:00,255,119
�n����ʂ�,3_1_3,2022/8/25,17:00,266,119
�n����ʂ�,3_1_3,2022/8/25,18:00,243,162
�n����ʂ�,3_1_3,2022/8/25,19:00,92,115
�n����ʂ�,3_1_3,2022/8/25,20:00,71,64
�n����ʂ�,3_1_3,2022/8/25,21:00,40,10
�n����ʂ�,3_1_3,2022/8/25,22:00,12,2
�n����ʂ�,3_1_3,2022/8/25,23:00,5,1
�n����ʂ�,3_1_3,2022/8/26,0:00,3,0
�n����ʂ�,3_1_3,2022/8/26,1:00,0,0
�n����ʂ�,3_1_3,2022/8/26,2:00,1,1
�n����ʂ�,3_1_3,2022/8/26,3:00,0,1
�n����ʂ�,3_1_3,2022/8/26,4:00,3,1
�n����ʂ�,3_1_3,2022/8/26,5:00,21,17
�n����ʂ�,3_1_3,2022/8/26,6:00,32,45
�n����ʂ�,3_1_3,2022/8/26,7:00,76,401
�n����ʂ�,3_1_3,2022/8/26,8:00,128,446
�n����ʂ�,3_1_3,2022/8/26,9:00,155,154
�n����ʂ�,3_1_3,2022/8/26,10:00,154,215
�n����ʂ�,3_1_3,2022/8/26,11:00,220,213
�n����ʂ�,3_1_3,2022/8/26,12:00,280,260
�n����ʂ�,3_1_3,2022/8/26,13:00,199,180
�n����ʂ�,3_1_3,2022/8/26,14:00,243,210
�n����ʂ�,3_1_3,2022/8/26,15:00,278,200
�n����ʂ�,3_1_3,2022/8/26,16:00,376,177
�n����ʂ�,3_1_3,2022/8/26,17:00,257,136
�n����ʂ�,3_1_3,2022/8/26,18:00,263,136
�n����ʂ�,3_1_3,2022/8/26,19:00,110,85
�n����ʂ�,3_1_3,2022/8/26,20:00,108,88
�n����ʂ�,3_1_3,2022/8/26,21:00,90,68
�n����ʂ�,3_1_3,2022/8/26,22:00,26,22
�n����ʂ�,3_1_3,2022/8/26,23:00,7,1
�n����ʂ�,3_1_3,2022/8/27,0:00,5,0
�n����ʂ�,3_1_3,2022/8/27,1:00,8,1
�n����ʂ�,3_1_3,2022/8/27,2:00,0,0
�n����ʂ�,3_1_3,2022/8/27,3:00,1,1
�n����ʂ�,3_1_3,2022/8/27,4:00,8,0
�n����ʂ�,3_1_3,2022/8/27,5:00,17,19
�n����ʂ�,3_1_3,2022/8/27,6:00,29,29
�n����ʂ�,3_1_3,2022/8/27,7:00,49,78
�n����ʂ�,3_1_3,2022/8/27,8:00,88,135
�n����ʂ�,3_1_3,2022/8/27,9:00,141,169
�n����ʂ�,3_1_3,2022/8/27,10:00,222,307
�n����ʂ�,3_1_3,2022/8/27,11:00,335,355